Погода в Мастахе

Россия / Республика Саха (Якутия)     63°43′19″N   124°11′32″E
темп.,
°C
ветер,
м/с
пор.,
м/с
влажн.,
%
обл.,
%
осадки,
мм/ч
давл.,
гПа
погр.,
м
1 марта, пн
пн100:00−27з4995100 0.1 1026472
03:00−27з4993100 0.2 1026434
06:00−29з4892100 0.0 1027362
09:00−30з4892100 0.0 1027367
12:00−29з4792100 0.0 1027394
15:00−28з4791100 0.0 1027415
18:00−31з339598 0.0 102778
21:00−33з349699 0.0 102773
2 марта, вт
вт200:00−35з239780 0.0 102727
03:00−35з239781 0.0 102743
06:00−36з239797 0.0 102728
09:00−36з239792 0.0 102775
12:00−32зсз239099 0.0 1027287
15:00−30сз118799 0.0 1026346
18:00−34ссз119797 0.0 102619
21:00−37ссз119982 0.0 102619
3 марта, ср
ср300:00−38зсз1110066 0.0 102619
03:00−39сз129963 0.0 102519
06:00−39зсз129862 0.0 102518
09:00−37зсз229666 0.0 102470
12:00−33зсз249697 0.0 1024265
15:00−31зсз359599 0.1 1023386
18:00−31зсз3696100 0.1 1022400
21:00−31зсз4896100 0.3 1022458
4 марта, чт
чт400:00−30зсз4996100 0.2 1020545
03:00−30зсз4996100 0.4 1019648
06:00−30сз4996100 0.2 1019703
09:00−31сз5894100 0.3 1019717
12:00−30сз4791100 0.1 1020867
15:00−29сз4688100 0.2 1021931
18:00−31ссз3694100 0.1 1024177
21:00−36сз339597 0.1 102545
5 марта, пт
пт500:00−36зсз359792 0.0 102593
03:00−36зсз379596 0.0 1026150
06:00−37з479664 0.0 1027155
09:00−36зсз499442 0.0 1028267
12:00−32зсз479363 0.0 1029365
15:00−30зсз589378 0.0 1029483
18:00−31зсз3895100 0.0 1029201
21:00−33зсз369762 0.0 1029110